RH
21 19 25 27 17 12 11 13 11 10 9 12 16 18 20 27 19 25 46 40 36 42 31 40 43 44 49 51 49 46 44 42 39 36 40 39 28 24 24 24 25 25 27 27 28 29 29 30 30
18 24 27 18 14 9 12 11 11 10 18 26 24 22 18 29 36 43 50 38 36 36 33 38 43 43 46 48 48 45 40 38 38 40 44 43 36 25 24 25 25 25 27 28 29 30 33 33 34
20 21 18 12 12 9 11 11 10 9 16 13 16 25 26 35 46 41 41 38 38 33 35 34 41 42 41 43 47 46 43 41 42 44 47 47 42 29 24 26 26 26 26 27 28 30 34 36 37
23 20 18 13 11 14 13 12 10 9 11 9 16 18 36 55 48 54 30 34 39 43 42 30 37 42 43 43 44 47 48 47 47 49 50 50 46 39 28 28 28 27 24 27 28 31 34 37 37
22 16 11 10 13 14 13 12 12 9 11 12 14 17 25 50 36 32 28 30 35 39 42 33 36 44 46 47 46 47 49 52 53 53 54 54 52 48 35 29 31 30 27 26 25 26 26 33 39
16 14 11 8 10 12 12 14 13 11 11 16 14 16 25 37 39 36 26 26 28 35 40 39 39 48 53 54 52 49 49 51 54 56 57 58 58 54 46 36 31 32 33 30 26 23 22 25 31
17 13 9 9 9 13 12 14 13 12 11 11 14 13 22 35 48 30 33 27 28 35 43 44 43 46 55 60 61 58 55 54 55 57 60 63 63 60 56 45 38 34 36 38 34 28 23 20 22
17 14 12 10 8 9 12 14 14 13 13 16 16 14 16 24 36 28 32 30 30 35 42 48 49 47 50 57 67 69 66 63 62 62 64 67 68 65 61 55 50 46 39 43 46 41 32 26 21
18 15 12 10 11 8 12 13 15 17 15 15 16 16 20 20 22 21 28 36 34 36 37 42 53 57 56 90 62 68 75 73 70 71 71 72 75 70 66 68 60 60 54 47 46 52 49 38 27
13 12 10 8 9 9 12 14 15 17 16 16 16 19 17 18 31 43 49 56 70 37 33 36 49 59 66 64 62 64 73 77 76 75 74 76 99 99 99 91 73 70 68 63 58 53 53 56 47
13 12 9 11 11 12 11 14 16 15 15 16 16 19 21 26 30 37 34 34 54 68 37 33 40 51 64 68 64 69 71 86 76 92 96 99 100 100 97 95 80 80 76 79 74 67 64 59 61
17 13 10 11 11 14 13 13 16 16 16 18 19 20 21 24 26 28 34 30 43 61 65 36 36 44 53 64 64 63 64 68 70 69 76 84 98 96 99 97 99 98 96 98 95 99 84 71 63
22 12 14 16 14 14 14 17 15 16 16 18 19 22 24 22 24 26 27 29 33 57 68 39 36 41 48 57 61 62 63 65 69 79 88 87 93 94 89 91 92 93 96 96 97 99 99 97 85
17 18 15 18 19 18 22 18 19 18 16 20 21 21 22 23 24 23 25 28 34 54 64 47 38 42 46 54 58 63 66 70 73 81 83 90 92 95 98 92 85 91 92 99 98 100 100 100 100
24 23 19 22 24 20 21 22 18 17 16 18 19 18 19 22 23 24 24 25 36 47 59 61 41 44 44 56 60 62 62 64 76 92 95 90 97 96 96 82 90 88 90 94 90 94 94 96 100
28 24 23 14 15 21 25 18 11 12 17 19 18 18 22 24 29 30 30 30 36 45 57 82 41 44 50 59 62 64 60 58 66 72 76 78 81 90 86 89 88 91 93 97 99 99 99 97 97
28 26 21 18 15 17 22 16 11 12 17 16 18 19 22 27 32 31 23 23 35 40 61 79 42 48 55 63 69 71 68 68 72 78 82 83 87 91 91 93 97 94 98 100 98 99 99 100 100
26 28 28 22 16 22 19 20 13 18 18 18 17 19 24 27 30 35 25 39 30 30 49 67 32 41 56 63 74 84 86 89 88 88 88 88 94 98 98 97 95 93 88 87 89 87 87 94 92
24 24 25 19 16 25 25 19 16 15 16 19 19 19 22 27 32 24 27 29 28 30 34 44 28 37 58 72 85 99 99 98 98 100 97 100 99 100 96 92 90 88 94 82 61 64 62 74 66
36 35 29 21 19 29 26 22 16 15 15 17 18 17 19 26 36 27 31 41 32 32 33 32 33 50 88 83 95 100 100 100 100 94 82 71 50 40 29 26 25 22 24 28 31 45 63 60 69
38 36 29 27 23 29 32 28 19 15 15 16 18 18 17 21 35 44 62 56 56 62 38 44 47 55 93 100 100 100 100 92 60 35 22 18 16 14 13 11 10 11 16 33 35 55 66 62 60
40 26 27 29 34 41 21 27 15 10 9 11 15 18 17 22 31 38 60 76 72 83 92 85 74 99 98 100 100 99 76 49 47 26 15 13 11 9 8 7 7 8 10 16 27 48 60 60 54
32 25 25 30 38 37 32 31 22 14 14 14 18 21 24 28 31 43 60 76 88 84 82 95 99 100 100 91 77 47 30 24 14 12 11 10 9 7 6 6 7 8 11 14 15 17 21 50 61
26 31 32 30 36 50 33 29 22 14 13 14 14 15 23 26 36 46 58 75 86 90 88 86 77 71 52 31 22 17 14 13 12 11 10 10 6 4 3 4 5 4 5 7 8 10 15 26 57
32 39 49 53 52 52 22 26 24 13 13 12 13 18 22 28 37 49 52 57 66 74 76 63 55 39 25 18 15 14 14 13 12 11 10 6 5 7 11 8 9 12 16 19 24 33 36 40 73
31 39 45 58 42 33 25 30 18 12 12 14 14 16 21 35 43 50 50 50 57 62 57 49 44 27 19 17 18 16 15 14 12 11 7 6 11 30 22 15 16 20 21 24 35 46 60 92 96
30 44 33 41 32 42 25 20 16 14 14 20 19 22 30 40 46 50 51 50 54 58 56 50 43 23 20 20 19 17 15 14 12 9 8 17 18 36 27 23 24 26 34 44 52 67 84 97 100
31 26 57 57 93 75 40 26 20 14 15 19 22 24 30 39 45 51 52 54 54 54 55 48 40 27 21 21 20 17 16 14 11 10 13 16 17 21 24 27 37 47 51 52 72 94 96 97 98
36 37 41 46 57 69 58 41 24 20 16 24 24 24 30 37 44 52 54 55 53 52 54 47 43 38 24 22 19 18 17 13 12 15 17 18 18 23 27 38 48 51 55 72 87 84 89 97 99
29 36 41 80 88 70 66 58 23 23 18 17 21 22 28 36 44 52 56 54 52 54 51 47 45 28 25 21 19 18 14 14 17 19 18 20 26 32 48 58 56 57 63 60 67 87 98 99 100
Wind_Speed
5 7 7 4 6 6 6 6 1 4 4 3 1 3 9 9 7 5 11 8 10 14 19 22 23 23 21 21 20 19 17 17 15 13 11 9 8 9 9 8 7 6 6 5 4 4 4 5 5
4 5 4 4 7 9 8 3 4 2 5 7 6 4 4 9 8 10 8 7 8 12 17 23 25 24 22 21 20 18 17 17 16 14 11 9 7 7 7 6 6 5 5 5 4 4 4 4 4
3 3 6 4 5 9 7 3 1 4 6 3 4 4 3 5 7 8 8 9 8 11 16 21 23 23 22 21 20 19 18 17 15 13 11 9 7 6 7 6 5 4 4 5 4 4 4 4 4
3 4 5 7 7 4 1 2 3 9 5 5 4 8 5 5 6 6 10 8 7 10 14 17 21 23 22 22 21 20 18 17 15 14 12 10 8 7 7 7 5 4 4 4 4 4 4 3 3
3 6 7 7 6 3 2 4 4 7 6 8 7 7 6 7 8 10 9 7 7 10 14 14 19 22 22 22 22 21 19 18 17 15 14 11 9 8 8 7 6 4 4 4 5 5 5 4 4
8 5 8 10 9 6 3 4 3 7 9 10 8 8 7 9 9 10 10 8 10 13 14 14 19 21 22 23 22 22 21 20 18 16 14 12 11 9 8 8 7 7 6 5 5 6 6 6 6
12 7 11 7 5 9 7 4 4 3 8 7 6 7 6 9 10 12 12 11 13 14 14 16 18 21 22 22 22 22 21 20 18 17 15 14 12 10 9 9 9 9 8 6 6 6 6 6 7
9 6 10 9 9 7 9 7 5 3 4 3 3 5 7 7 11 11 12 13 15 16 16 17 18 20 22 22 23 23 22 21 20 18 17 16 13 12 11 10 11 10 10 8 7 7 7 7 8
8 7 11 13 10 5 6 9 6 3 6 6 5 4 3 6 9 10 12 14 17 17 17 17 17 19 20 18 23 23 23 22 21 20 19 17 15 15 14 13 11 10 10 10 9 8 9 8 9
14 11 15 7 10 7 7 8 5 7 8 8 9 8 8 10 11 11 11 11 15 19 19 17 17 17 17 20 21 23 23 23 22 22 21 19 14 13 12 15 12 11 10 11 12 10 10 12 10
13 17 14 10 13 10 13 11 8 11 12 12 10 7 9 13 14 13 13 12 15 16 18 18 17 16 15 18 21 23 24 23 23 21 20 17 17 16 15 16 15 14 12 11 12 13 11 13 13
13 19 16 13 12 12 14 15 14 15 16 10 11 14 14 17 17 16 16 14 14 17 18 19 19 17 16 16 19 23 24 25 24 23 23 22 20 18 15 14 11 12 13 11 12 10 13 16 16
18 18 14 17 17 17 17 20 19 26 18 18 18 16 17 19 21 19 19 16 15 17 18 21 21 20 19 16 17 19 21 22 22 22 21 20 20 19 16 14 14 13 13 11 13 13 13 14 18
5 20 21 17 17 18 16 20 13 28 13 13 13 15 17 20 22 22 21 21 19 18 18 21 22 22 21 19 16 15 15 17 19 19 19 19 18 17 17 15 14 12 12 11 10 11 11 12 13
17 19 18 17 17 17 18 21 23 33 22 20 15 15 15 18 19 23 23 22 20 19 18 22 23 24 24 21 18 16 14 15 15 15 16 17 16 15 13 12 12 12 13 14 15 16 17 17 17
12 18 19 18 21 23 12 19 18 21 19 18 13 12 11 13 15 16 17 21 19 18 20 21 25 26 25 23 21 19 17 15 14 13 12 11 11 12 14 13 12 14 16 17 21 22 24 24 26
16 17 19 17 16 13 19 18 20 22 20 20 13 10 9 12 13 13 16 19 17 19 20 21 25 26 26 25 23 22 18 16 14 13 11 11 11 12 13 14 15 17 17 19 22 21 25 25 27
20 17 18 18 6 14 19 21 16 12 17 18 16 10 10 13 14 14 15 16 17 19 21 22 26 26 27 27 25 22 18 16 14 14 12 12 12 12 12 12 14 16 19 22 24 26 25 27 30
22 15 21 18 13 12 19 21 18 22 24 23 25 21 15 16 15 19 19 19 19 20 21 24 27 27 28 30 28 25 20 16 14 11 12 13 10 10 11 11 14 16 15 20 23 23 25 25 29
23 23 24 20 16 13 20 26 24 22 27 28 27 25 22 19 18 21 22 20 21 21 22 24 25 26 28 30 29 26 22 18 15 15 13 11 10 10 11 13 15 18 20 23 24 24 22 22 20
27 28 24 22 14 14 17 29 29 26 35 33 31 30 29 26 25 22 20 20 20 19 21 21 24 25 26 26 26 27 24 20 15 12 10 9 9 10 13 16 19 22 24 24 25 23 22 26 25
28 26 24 21 17 18 12 22 27 19 20 19 25 30 32 27 26 23 20 19 20 19 19 20 23 23 26 29 28 24 22 17 13 10 8 8 10 13 16 19 22 24 27 29 28 24 25 26 31
29 24 22 20 20 20 26 15 31 20 23 21 16 24 26 27 27 25 22 19 19 21 23 25 27 29 30 27 24 23 20 15 11 7 7 9 13 15 18 20 23 25 28 30 33 34 34 29 30
18 18 13 18 15 18 32 19 32 23 25 18 18 27 28 26 27 25 22 22 21 22 23 25 26 30 29 26 23 19 15 10 6 6 9 12 15 17 19 21 24 27 30 32 34 35 36 36 33
24 17 13 13 14 21 13 17 30 7 14 14 22 25 23 26 29 30 29 28 27 27 26 26 25 27 27 23 18 14 9 5 4 7 11 14 17 18 20 23 26 28 29 31 33 33 35 36 34
32 28 15 21 20 23 20 16 24 16 19 25 29 24 23 27 32 33 32 31 30 29 28 28 27 26 24 20 15 9 5 4 7 11 14 17 18 19 22 26 28 30 32 34 34 33 33 30 31
31 24 34 24 18 11 16 24 33 28 20 10 18 20 25 31 33 34 34 33 32 31 30 28 26 25 22 17 13 8 6 7 11 14 17 17 20 21 24 28 31 32 32 32 33 33 32 30 30
30 24 20 15 10 22 22 30 25 19 21 19 20 23 26 27 29 32 35 35 33 32 29 28 25 23 21 16 12 8 8 11 14 16 18 21 23 24 28 30 31 31 32 33 32 31 33 34 35
23 26 20 18 16 14 20 20 34 26 22 18 22 29 27 29 32 34 35 34 34 31 29 29 25 22 20 15 12 9 10 13 16 18 20 22 25 26 28 31 31 32 32 29 29 31 32 32 34
32 30 29 13 15 20 22 22 18 6 13 19 24 32 27 26 29 33 36 36 36 33 30 28 24 23 19 14 11 11 13 15 18 20 22 24 25 26 26 28 30 32 32 34 34 33 32 34 35
Wind_Direction
323 332 333 270 241 237 171 127 19 140 151 38 20 343 46 22 8 44 145 166 173 181 188 187 186 183 177 175 176 177 177 177 173 166 160 156 154 152 148 149 149 150 150 150 159 157 159 150 144
321 329 300 268 253 211 144 120 151 87 99 99 99 120 78 75 71 116 126 160 168 185 193 192 190 190 185 183 183 184 182 178 175 170 166 165 164 156 152 158 157 157 153 157 172 175 175 162 153
309 322 269 265 252 238 137 138 61 121 175 180 136 66 102 93 111 132 157 168 170 180 193 201 196 197 195 193 192 192 188 185 182 178 177 175 177 165 163 169 176 163 151 157 180 190 195 177 167
289 246 225 248 204 104 261 58 103 143 129 181 168 117 112 142 141 146 165 172 178 188 192 208 203 202 202 199 200 199 196 194 192 189 188 188 187 177 173 174 188 186 166 166 183 204 218 202 188
272 248 244 238 198 161 165 90 122 172 127 152 176 130 130 167 166 165 168 174 189 194 198 205 207 207 208 206 207 207 205 203 201 200 199 198 195 188 178 179 199 213 195 182 186 203 226 222 219
232 271 235 223 184 184 191 133 142 141 154 137 158 144 143 181 178 182 180 188 200 203 205 204 206 210 213 212 213 213 211 209 209 208 209 207 203 198 187 188 199 223 220 207 205 201 220 228 229
254 245 257 272 227 199 190 178 147 157 161 140 137 165 146 183 188 200 200 199 200 202 201 207 207 210 213 216 217 218 217 214 214 217 217 214 209 208 203 198 202 221 234 218 229 221 219 233 241
241 259 252 236 224 208 174 185 182 228 140 141 169 177 170 188 199 209 213 212 206 202 202 208 209 212 214 214 215 218 218 217 217 218 218 218 216 218 219 213 212 214 236 238 241 248 240 235 245
215 241 244 235 234 215 175 210 200 255 245 208 207 222 176 182 215 226 227 222 215 206 207 208 209 213 213 206 214 215 216 216 215 216 219 221 220 220 224 222 222 220 231 252 250 260 268 261 254
214 231 243 252 248 254 200 233 202 237 201 217 222 223 232 227 231 224 223 225 215 212 212 212 212 214 216 218 215 211 214 213 214 216 220 219 209 213 217 231 231 234 234 249 264 267 270 276 268
217 241 238 240 246 261 259 239 237 248 242 238 229 227 251 239 237 234 238 244 234 214 215 216 215 214 215 217 210 207 211 208 211 211 212 210 219 218 213 239 239 242 243 251 259 271 275 264 265
246 235 250 239 243 244 252 270 253 256 261 248 256 270 269 245 244 246 245 251 232 211 209 218 218 212 215 214 208 210 213 215 215 217 219 219 215 219 220 229 246 249 254 242 252 257 261 274 270
236 249 233 244 244 248 258 258 270 267 264 266 272 267 257 248 246 251 248 251 236 217 209 221 219 213 212 213 209 208 212 217 222 218 218 221 225 228 230 234 237 249 258 262 261 259 260 263 270
252 251 251 238 236 237 244 253 253 263 258 262 271 267 258 254 249 254 244 248 234 223 214 220 223 217 215 210 211 208 210 214 218 219 219 226 231 232 235 242 247 251 251 253 257 257 259 264 265
259 257 250 231 236 238 245 253 244 255 263 266 266 263 260 250 248 249 247 241 233 227 214 221 222 219 218 212 208 207 208 209 208 204 209 214 220 228 232 229 236 249 250 257 266 270 274 273 270
241 240 253 243 232 227 224 255 240 248 243 236 251 266 262 247 246 250 242 231 225 217 208 211 221 220 217 211 207 206 208 202 199 195 193 193 196 204 213 226 236 247 260 266 275 282 282 279 277
226 251 233 252 228 233 220 249 246 245 227 235 228 243 257 246 249 242 235 227 217 209 199 204 220 218 215 210 207 206 205 199 193 190 190 195 202 214 222 235 248 261 269 273 274 276 281 284 283
232 230 250 246 200 231 240 244 254 213 216 221 232 232 237 239 236 230 219 212 208 205 201 201 220 219 214 210 206 205 201 194 191 193 198 213 223 230 243 246 255 263 272 274 279 281 284 284 284
257 253 252 252 250 283 259 260 254 245 237 233 243 242 238 235 229 232 220 214 212 207 206 211 218 217 210 204 200 201 194 192 194 194 213 223 220 233 250 263 263 267 276 279 283 286 287 286 284
243 247 249 256 263 283 274 271 267 255 250 246 243 241 238 233 219 227 223 217 215 214 211 213 214 208 205 203 201 197 189 174 174 196 204 217 230 243 254 262 273 279 281 284 284 286 287 284 284
231 235 244 253 249 249 281 280 261 252 251 245 246 244 245 232 217 210 212 212 209 209 212 206 209 205 200 198 198 193 193 193 181 179 198 217 246 271 284 287 287 287 288 287 287 287 283 283 278
239 232 248 257 254 254 236 273 274 267 261 246 229 239 236 220 214 208 207 205 203 202 193 197 201 190 182 188 193 182 184 176 178 183 217 253 274 283 286 287 286 285 286 286 286 284 278 277 276
242 246 246 238 244 257 251 262 266 268 260 243 231 232 224 216 208 203 199 197 192 192 187 191 176 175 174 177 177 173 172 177 188 215 255 273 285 290 289 287 286 287 286 284 284 284 283 278 274
237 235 238 237 237 243 244 242 270 257 258 241 244 240 226 213 203 197 191 182 174 166 165 165 161 167 167 167 170 174 180 188 210 251 283 293 296 294 291 290 289 289 288 288 288 286 284 281 276
214 211 219 219 216 238 237 224 247 237 295 254 235 236 227 210 199 188 184 180 174 168 164 162 160 163 168 173 179 181 185 202 249 283 294 294 296 296 295 296 297 296 294 293 291 287 284 280 276
213 213 219 223 231 242 226 243 246 235 258 262 249 240 223 202 196 191 186 181 176 171 169 168 168 171 173 174 179 184 197 243 283 296 295 297 294 294 296 299 300 301 298 295 292 288 285 280 275
220 213 224 248 275 280 259 236 250 257 250 243 234 228 204 202 195 189 185 184 180 177 175 174 170 174 176 180 186 202 233 270 287 293 295 295 297 298 299 301 300 298 295 294 290 288 286 284 280
227 214 220 226 218 236 244 254 263 250 254 217 227 220 213 201 194 189 186 185 183 179 177 176 173 176 181 186 196 218 255 278 286 291 295 298 300 302 302 301 299 297 295 294 292 290 287 281 280
210 222 212 219 219 235 249 250 253 256 252 218 222 219 210 198 191 189 188 185 183 179 179 177 171 175 184 192 206 231 262 278 288 294 299 302 303 302 301 299 299 299 297 295 292 292 290 281 277
221 212 211 214 208 222 230 253 244 300 263 231 227 220 207 200 193 189 184 182 183 180 178 176 178 183 191 201 219 246 270 282 292 300 303 301 301 301 300 301 301 299 298 299 296 297 294 288 287